User: anonymous   Login
Location: Cranbrook Institute of Science
(42.5830°N, 83.2450°W)
Time: 00:56:14
(UTC-05:00)
Language:

CZ-4B R/B - Orbit

View from above orbital plane
View from above orbital plane
View from above satellite
View from above satellite

Ground track
Ground track

The orbit data is extracted from the following two-line orbital elements,

1 29093U 06015B   15064.21981701  .00011892  00000-0  37481-3 0  9997
2 29093 097.4991 150.2153 0082771 061.8921 320.0807 15.29686127489393
Epoch (UTC): 05 March 2015 05:16:32
Eccentricity: 0.0082771
inclination: 97.4991°
perigee height: 420 km
apogee height: 533 km
right ascension of ascending node: 150.2153°
argument of perigee: 61.8921°
revolutions per day: 15.29686127
mean anomaly at epoch: 320.0807°
orbit number at epoch: 48939

The dashed part of the orbit path shows where the satellite is in the earth's shadow,  

DLR